Regional Weather Roundup
Issued by NWS Memphis, TN

Home | Current Version | Previous Version | Text Only | Print | Product List | Glossary On
Versions: 1 2 3 4 5 6 7 8 9 10 11 12 13 14 15 16 17 18 19 20 21 22 23 24 25 26 27 28 29 30 31 32 33 34 35 36 37 38 39 40 41 42 43 44 45 46 47 48 49 50
000
ASUS44 KMEG 020610
RWRMEG
MEMPHIS CWA HOURLY WEATHER ROUNDUP
NATIONAL WEATHER SERVICE MEMPHIS TN
100 AM CDT THU APR 02 2015

...WEST TENNESSEE...

CITY           SKY/WX    TMP DP  RH WIND       PRES   REMARKS
MEMPHIS INTL   CLOUDY    71  58  63 S13       29.95F
6HR MIN TEMP:  70; 6HR MAX TEMP:  75;

NWS MEMPHIS      N/A     69 N/A N/A MISG        N/A
JACKSON        CLOUDY    65  59  81 S9        29.96F
6HR MIN TEMP:  62; 6HR MAX TEMP:  67; 6HR PCP:  0.25;

LEXINGTON      PTCLDY    63  55  77 S3        29.98S
SAVANNAH       CLEAR     63  61  94 SE7       29.99F
DYERSBURG      CLOUDY    64  50  59 S8        29.94F
6HR MIN TEMP:  64; 6HR MAX TEMP:  72;

UNION CITY     CLEAR     63  61  94 SE9       29.92F
PARIS          CLEAR     63  54  72 S8        29.96F
HUNTINGDON     CLOUDY    62  57  83 S7        29.96F
                                      6HR PCP:  0.01;



...EASTERN ARKANSAS...

CITY           SKY/WX    TMP DP  RH WIND       PRES   REMARKS
JONESBORO      NOT AVBL
WEST MEMPHIS   CLOUDY    69  62  78 S10       29.93F
6HR MIN TEMP:  67; 6HR MAX TEMP:  72;

BATESVILLE     CLOUDY    63  57  82 SE8       29.89F
6HR MIN TEMP:  63; 6HR MAX TEMP:  73; 6HR PCP:  0.28;

NEWPORT        LGT RAIN  62  61  97 S17       29.92F
6HR MIN TEMP:  62; 6HR MAX TEMP:  72; 6HR PCP:  0.71;

BLYTHEVILLE    CLOUDY    66  62  87 S14       29.91F THUNDER
6HR MIN TEMP:  64; 6HR MAX TEMP:  71; 6HR PCP:  0.10;

SEARCY         CLOUDY    62  60  93 NE3       29.92S
6HR MIN TEMP:  62; 6HR MAX TEMP:  73; 6HR PCP:  0.99;

STUTTGART      CLOUDY    64  59  82 E6        29.93F
6HR MIN TEMP:  63; 6HR MAX TEMP:  75;

PINE BLUFF     CLOUDY    67  61  81 S7        29.93F
6HR MIN TEMP:  67; 6HR MAX TEMP:  74;

MONTICELLO     CLOUDY    68  61  78 S7        29.95S
6HR MIN TEMP:  68; 6HR MAX TEMP:  77;



...NORTH MISSISSIPPI...

CITY           SKY/WX    TMP DP  RH WIND       PRES   REMARKS
TUPELO         MOCLDY    65  58  78 S3        30.00S
6HR MIN TEMP:  64; 6HR MAX TEMP:  75;

OXFORD         MOCLDY    66  57  72 S9        30.01S
OLIVE BRANCH   PTCLDY    66  63  88 S9        29.97F
TUNICA         CLOUDY    68  61  77 S12       29.96F
CLARKSDALE       N/A     66  63  88 SE9       29.97F
CORINTH        MOCLDY    63  61  94 SE5       29.99S
GREENWOOD      MOCLDY    67  57  70 S8        29.99S
6HR MIN TEMP:  66; 6HR MAX TEMP:  74;

COLUMBUS       LGT RAIN  61  58  88 S3        30.02R
6HR MIN TEMP:  59; 6HR MAX TEMP:  75; 6HR PCP: TRACE;

STARKVILLE     FAIR      64  57  77 CALM      30.02S
GOLDEN TRIANGL MOCLDY    63  55  77 S8        30.02R
6HR MIN TEMP:  63; 6HR MAX TEMP:  75;



...SOUTHEAST MISSOURI...

CITY           SKY/WX    TMP DP  RH WIND       PRES   REMARKS
WEST PLAINS    MOCLDY    62  55  77 S15       29.86F
6HR MIN TEMP:  60; 6HR MAX TEMP:  65; 6HR PCP:  0.05;

POPLAR BLUFF   LGT RAIN  61  58  90 S7        29.92F
6HR MIN TEMP:  61; 6HR MAX TEMP:  65; 6HR PCP:  0.35;

CAPE GIRARDEAU LGT RAIN  64  59  83 S10       29.90S
6HR MIN TEMP:  61; 6HR MAX TEMP:  67; 6HR PCP:  0.06;



...NORTHWEST ALABAMA...

CITY           SKY/WX    TMP DP  RH WIND       PRES   REMARKS
MUSCLE SHOALS  PTCLDY    64  57  78 SE6       30.03S
6HR MIN TEMP:  64; 6HR MAX TEMP:  72; 6HR PCP: TRACE;



...MIDDLE TENNESSEE...

CITY           SKY/WX    TMP DP  RH WIND       PRES   REMARKS
NASHVILLE      PTCLDY    63  36  36 SE7       29.99F
6HR MIN TEMP:  59; 6HR MAX TEMP:  70;

CLARKSVILLE    CLOUDY    65  36  34 S6        29.97F
6HR MIN TEMP:  62; 6HR MAX TEMP:  67;

COLUMBIA       MOCLDY    64  57  77 CALM      29.99S


...WESTERN KENTUCKY...

CITY           SKY/WX    TMP DP  RH WIND       PRES   REMARKS
PADUCAH        CLOUDY    63  51  65 S10       29.90F
6HR MIN TEMP:  57; 6HR MAX TEMP:  72; 6HR PCP:  0.09;

FORT CAMPBELL  CLOUDY    64  37  37 S3        29.96F
6HR MIN TEMP:  63; 6HR MAX TEMP:  67;



...CENTRAL ARKANSAS...

CITY           SKY/WX    TMP DP  RH WIND       PRES   REMARKS
LITTLE ROCK    MOCLDY    63  60  90 S7        29.90F
6HR MIN TEMP:  63; 6HR MAX TEMP:  77; 6HR PCP:  0.94;



SKY/WX REPORTED AS FAIR MEANS FEW OR NO CLOUDS BELOW
12 THOUSAND FEET.



USA.gov is the U.S. government's official web portal to all federal, state and local government web resources and services.